GW5804 Weather Reports


Display with metric or nautical units.
time (UTC)temp
F
wind
direction
speed
MPH
gust
MPH
rain 1hr
in
rain 24hr
in
rain mn
in
humidity
%
barometer
mb
20260503035723 55 276 0.0 0.0 0.00 0.00 0.00 76 1018.5
20260503035221 56 343 0.0 1.0 0.00 0.00 0.00 75 1018.6
20260503034718 56 351 1.0 1.0 0.00 0.00 0.00 74 1018.6
20260503034214 56 38 0.0 1.0 0.00 0.00 0.00 73 1018.6
20260503033712 56 332 0.0 1.0 0.00 0.00 0.00 73 1018.6
20260503033209 55 353 0.0 0.0 0.00 0.00 0.00 74 1018.7
20260503032708 56 315 0.0 0.0 0.00 0.00 0.00 73 1018.6
20260503032206 56 316 0.0 1.0 0.00 0.00 0.00 73 1018.6
20260503031702 56 316 0.0 1.0 0.00 0.00 0.00 74 1018.8
20260503031200 56 311 0.0 0.0 0.00 0.00 0.00 74 1018.7
20260503030656 56 306 0.0 0.0 0.00 0.00 0.00 73 1018.6
20260503030153 57 313 0.0 0.0 0.00 0.00 0.00 72 1018.8
20260503025650 56 315 0.0 1.0 0.00 0.00 0.00 71 1018.9
20260503025148 56 319 0.0 1.0 0.00 0.00 0.00 71 1018.8
20260503024644 55 320 1.0 1.0 0.00 0.00 0.00 73 1018.8
20260503024142 56 301 0.0 0.0 0.00 0.00 0.00 73 1018.8
20260503023639 56 310 0.0 0.0 0.00 0.00 0.00 73 1018.9
20260503023136 56 318 0.0 0.0 0.00 0.00 0.00 72 1019.0
20260503022632 56 348 1.0 2.0 0.00 0.00 0.00 72 1018.9
20260503022131 56 303 0.0 0.0 0.00 0.00 0.00 71 1018.9
20260503021628 56 309 0.0 0.0 0.00 0.00 0.00 71 1018.8
20260503021125 57 307 0.0 0.0 0.00 0.00 0.00 70 1019.1
20260503020622 57 305 0.0 0.0 0.00 0.00 0.00 69 1018.9
20260503020120 57 345 2.0 2.0 0.00 0.00 0.00 70 1018.8
20260503015616 57 311 1.0 1.0 0.00 0.00 0.00 69 1019.1
20260503015113 57 348 2.0 2.0 0.00 0.00 0.00 69 1019.0
20260503014609 57 354 2.0 2.0 0.00 0.00 0.00 69 1019.2
20260503014107 57 302 1.0 2.0 0.00 0.00 0.00 69 1019.0
20260503013604 57 357 2.0 3.0 0.00 0.00 0.00 69 1019.3
20260503013102 57 325 2.0 4.0 0.00 0.00 0.00 69 1019.1
20260503012559 57 341 2.0 2.0 0.00 0.00 0.00 71 1019.2
20260503012055 58 287 0.0 0.0 0.00 0.00 0.00 70 1019.3
20260503011552 58 6 2.0 2.0 0.00 0.00 0.00 69 1019.3
20260503011049 57 318 1.0 1.0 0.00 0.00 0.00 70 1019.3
20260503010545 57 312 0.0 0.0 0.00 0.00 0.00 72 1019.4
20260503010043 57 335 2.0 2.0 0.00 0.00 0.00 73 1019.5
20260503005540 57 7 2.0 3.0 0.00 0.00 0.00 72 1019.3
20260503005037 57 342 1.0 2.0 0.00 0.00 0.00 74 1019.4
20260503004533 57 327 0.0 0.0 0.00 0.00 0.00 74 1019.5
20260503004032 57 318 0.0 0.0 0.00 0.00 0.00 73 1019.5
20260503003528 58 313 0.0 0.0 0.00 0.00 0.00 72 1019.4
20260503003025 58 341 1.0 1.0 0.00 0.00 0.00 71 1019.6
20260503002522 57 333 2.0 2.0 0.00 0.00 0.00 70 1019.6
20260503002019 57 355 0.0 1.0 0.00 0.00 0.00 69 1019.8
20260503001515 57 322 0.0 0.0 0.00 0.00 0.00 68 1019.8
20260503001013 57 295 0.0 0.0 0.00 0.00 0.00 67 1019.5
20260503000510 58 283 0.0 0.0 0.00 0.00 0.00 67 1019.7
20260503000007 58 311 0.0 0.0 0.00 0.00 0.00 68 1019.7
20260502235503 58 314 0.0 0.0 0.00 0.00 0.00 68 1019.8
20260502235001 58 315 0.0 0.0 0.00 0.00 0.00 68 1019.8
20260502234457 58 322 0.0 0.0 0.00 0.00 0.00 68 1019.9
20260502233956 59 350 0.0 1.0 0.00 0.00 0.00 69 1019.9
20260502233455 59 353 0.0 1.0 0.00 0.00 0.00 69 1019.9
20260502232952 58 6 0.0 1.0 0.00 0.00 0.00 69 1020.0
20260502232449 58 319 0.0 0.0 0.00 0.00 0.00 69 1019.8
20260502231946 58 314 1.0 1.0 0.00 0.00 0.00 69 1020.1
20260502231443 59 317 0.0 0.0 0.00 0.00 0.00 69 1019.8
20260502230941 59 338 0.0 1.0 0.00 0.00 0.00 69 1020.0
20260502230439 59 330 0.0 0.0 0.00 0.00 0.00 68 1019.9
20260502225937 59 339 0.0 1.0 0.00 0.00 0.00 68 1020.0
20260502225432 59 334 1.0 1.0 0.00 0.00 0.00 68 1020.1
20260502224930 59 320 0.0 0.0 0.00 0.00 0.00 68 1020.1
20260502224425 59 353 1.0 2.0 0.00 0.00 0.00 67 1020.1
20260502223922 60 312 0.0 1.0 0.00 0.00 0.00 67 1020.0
20260502223421 59 330 1.0 1.0 0.00 0.00 0.00 68 1020.4
20260502222919 58 323 0.0 0.0 0.00 0.00 0.00 70 1020.2
20260502222416 59 32 0.0 0.0 0.00 0.00 0.00 70 1020.0
20260502221916 59 317 0.0 0.0 0.00 0.00 0.00 70 1020.2
20260502221413 59 316 0.0 0.0 0.00 0.00 0.00 70 1020.1
20260502220910 59 312 0.0 0.0 0.00 0.00 0.00 69 1020.2
20260502220406 59 337 1.0 1.0 0.00 0.00 0.00 69 1020.2
20260502215903 60 303 0.0 0.0 0.00 0.00 0.00 67 1020.5
20260502215400 60 346 3.0 3.0 0.00 0.00 0.00 66 1020.2
20260502214857 61 355 2.0 2.0 0.00 0.00 0.00 63 1020.1
20260502214353 61 323 1.0 2.0 0.00 0.00 0.00 61 1020.1
20260502213851 61 347 2.0 2.0 0.00 0.00 0.00 60 1020.1
20260502213348 61 318 2.0 2.0 0.00 0.00 0.00 58 1020.2
20260502212847 61 286 0.0 0.0 0.00 0.00 0.00 59 1020.1
20260502212345 61 341 1.0 1.0 0.00 0.00 0.00 59 1020.0
20260502211842 61 285 0.0 0.0 0.00 0.00 0.00 59 1020.0
20260502211337 61 86 0.0 1.0 0.00 0.00 0.00 60 1020.1
20260502210835 62 15 0.0 1.0 0.00 0.00 0.00 60 1020.0
20260502210332 62 77 1.0 1.0 0.00 0.00 0.00 59 1020.1
20260502205829 62 354 0.0 1.0 0.00 0.00 0.00 59 1020.0
20260502205325 62 335 2.0 3.0 0.00 0.00 0.00 58 1020.1
20260502204822 62 336 0.0 1.0 0.00 0.00 0.00 59 1020.2
20260502204319 62 324 0.0 1.0 0.00 0.00 0.00 59 1020.4
20260502203817 62 40 0.0 0.0 0.00 0.00 0.00 60 1020.4
20260502203315 62 357 0.0 0.0 0.00 0.00 0.00 58 1020.2
20260502202814 63 312 2.0 2.0 0.00 0.00 0.00 57 1020.1
20260502202313 62 359 1.0 2.0 0.00 0.00 0.00 58 1020.2
20260502201810 62 339 2.0 2.0 0.00 0.00 0.00 59 1020.4
20260502201306 62 347 0.0 1.0 0.00 0.00 0.00 60 1020.1
20260502200802 62 325 0.0 0.0 0.00 0.00 0.00 59 1020.2
20260502200258 62 345 1.0 1.0 0.00 0.00 0.00 59 1020.2
20260502195757 62 353 0.0 1.0 0.00 0.00 0.00 59 1020.2
20260502195253 62 349 1.0 2.0 0.00 0.00 0.00 59 1020.0
20260502194749 63 10 1.0 2.0 0.00 0.00 0.00 58 1020.0
20260502194247 63 314 0.0 1.0 0.00 0.00 0.00 57 1020.0
20260502193742 63 323 0.0 1.0 0.00 0.00 0.00 57 1020.5
20260502193240 63 347 0.0 0.0 0.00 0.00 0.00 57 1020.1
20260502192740 64 314 0.0 0.0 0.00 0.00 0.00 56 1020.2
20260502192238 64 313 0.0 1.0 0.00 0.00 0.00 55 1020.0
20260502191734 64 279 0.0 0.0 0.00 0.00 0.00 55 1019.9
20260502191232 64 295 1.0 3.0 0.00 0.00 0.00 55 1020.0
20260502190729 64 318 0.0 1.0 0.00 0.00 0.00 54 1020.1
20260502190227 65 307 0.0 0.0 0.00 0.00 0.00 53 1020.1
20260502185727 65 299 1.0 1.0 0.00 0.00 0.00 52 1020.0
20260502185223 64 330 1.0 1.0 0.00 0.00 0.00 52 1020.0
20260502184720 64 331 1.0 2.0 0.00 0.00 0.00 54 1019.9
20260502184215 64 335 2.0 3.0 0.00 0.00 0.00 54 1019.9
20260502183712 64 307 0.0 0.0 0.00 0.00 0.00 55 1019.7
20260502183208 65 307 0.0 0.0 0.00 0.00 0.00 54 1019.5
20260502182704 65 299 0.0 0.0 0.00 0.00 0.00 53 1019.5
20260502182159 65 321 1.0 1.0 0.00 0.00 0.00 54 1019.5
20260502181657 65 310 0.0 1.0 0.00 0.00 0.00 54 1019.3
20260502181156 65 307 0.0 1.0 0.00 0.00 0.00 53 1019.5
20260502180652 66 305 0.0 0.0 0.00 0.00 0.00 53 1019.5
20260502180150 66 305 0.0 0.0 0.00 0.00 0.00 52 1019.4
20260502170114 71 288 0.0 1.0 0.00 0.00 0.00 48 1019.4
20260502164100 73 284 0.0 0.0 0.00 0.00 0.00 45 1019.5
20260502163556 73 264 1.0 2.0 0.00 0.00 0.00 44 1019.5
20260502163053 73 311 3.0 6.0 0.00 0.00 0.00 44 1019.6
20260502162550 73 282 1.0 2.0 0.00 0.00 0.00 44 1019.5
20260502162047 73 302 0.0 0.0 0.00 0.00 0.00 44 1019.5
20260502161544 73 297 1.0 2.0 0.00 0.00 0.00 45 1019.7
20260502161042 73 289 0.0 1.0 0.00 0.00 0.00 44 1019.9
20260502160540 73 316 0.0 1.0 0.00 0.00 0.00 45 1019.7
20260502151947 76 292 1.0 1.0 0.00 0.00 0.00 41 1020.1
20260502151443 75 276 1.0 1.0 0.00 0.00 0.00 41 1020.4
20260502150941 76 283 1.0 1.0 0.00 0.00 0.00 41 1020.1
20260502150438 76 272 0.0 0.0 0.00 0.00 0.00 41 1020.0
20260502130323 74 220 1.0 2.0 0.00 0.00 0.00 43 1021.7
20260502123809 73 228 1.0 2.0 0.00 0.00 0.00 44 1021.8
20260502123306 74 196 4.0 6.0 0.00 0.00 0.00 45 1021.7
20260502122802 74 205 1.0 2.0 0.00 0.00 0.00 45 1022.0
20260502122258 75 265 2.0 3.0 0.00 0.00 0.00 43 1022.0
20260502121757 74 254 2.0 3.0 0.00 0.00 0.00 43 1022.2
20260502121254 74 238 1.0 2.0 0.00 0.00 0.00 45 1022.0
20260502120751 75 286 1.0 2.0 0.00 0.00 0.00 43 1022.1
20260502120247 76 258 1.0 2.0 0.00 0.00 0.00 41 1022.0
20260502115745 75 252 1.0 1.0 0.00 0.00 0.00 42 1022.1
20260502115242 75 296 2.0 3.0 0.00 0.00 0.00 43 1022.4
20260502114737 75 221 0.0 1.0 0.00 0.00 0.00 43 1022.2
20260502114235 74 236 1.0 2.0 0.00 0.00 0.00 43 1022.3
20260502113732 73 239 0.0 1.0 0.00 0.00 0.00 42 1022.3
20260502113230 73 272 0.0 1.0 0.00 0.00 0.00 44 1022.4
20260502112728 73 269 2.0 3.0 0.00 0.00 0.00 43 1022.5
20260502112225 73 216 1.0 2.0 0.00 0.00 0.00 44 1022.7
20260502111722 73 227 1.0 2.0 0.00 0.00 0.00 45 1022.7
20260502111220 72 178 1.0 1.0 0.00 0.00 0.00 45 1022.7
20260502110717 73 212 2.0 4.0 0.00 0.00 0.00 45 1022.8
20260502110215 72 6 0.0 1.0 0.00 0.00 0.00 46 1022.9
20260502105712 72 328 2.0 3.0 0.00 0.00 0.00 46 1022.9
20260502105209 72 241 2.0 2.0 0.00 0.00 0.00 45 1023.1
20260502104707 72 265 1.0 3.0 0.00 0.00 0.00 45 1023.1
20260502104204 72 328 0.0 1.0 0.00 0.00 0.00 44 1023.3
20260502103701 73 181 2.0 2.0 0.00 0.00 0.00 44 1023.1
20260502103159 73 241 1.0 2.0 0.00 0.00 0.00 41 1023.2
20260502102655 73 264 1.0 2.0 0.00 0.00 0.00 42 1023.2
20260502102152 73 211 0.0 2.0 0.00 0.00 0.00 42 1023.2
20260502101650 73 271 1.0 1.0 0.00 0.00 0.00 43 1023.3
20260502101148 73 282 2.0 4.0 0.00 0.00 0.00 42 1023.4
20260502100646 73 251 0.0 0.0 0.00 0.00 0.00 43 1023.3
20260502100144 72 307 0.0 1.0 0.00 0.00 0.00 43 1023.3
20260502091118 71 219 1.0 2.0 0.00 0.00 0.00 45 1023.8
20260502090615 71 254 0.0 1.0 0.00 0.00 0.00 48 1023.9
20260502090112 70 285 1.0 1.0 0.00 0.00 0.00 49 1024.0
20260502071515 66 317 1.0 1.0 0.00 0.00 0.00 49 1024.7
20260502071014 65 346 0.0 0.0 0.00 0.00 0.00 51 1024.6
20260502070511 65 315 0.0 1.0 0.00 0.00 0.00 52 1024.7
20260502070009 64 315 0.0 0.0 0.00 0.00 0.00 51 1024.7
20260502065508 63 90 0.0 0.0 0.00 0.00 0.00 51 1024.8
20260502065005 62 315 1.0 2.0 0.00 0.00 0.00 53 1024.8
20260502064503 62 13 1.0 2.0 0.00 0.00 0.00 56 1024.9
20260502064000 61 356 1.0 2.0 0.00 0.00 0.00 58 1024.8
20260502063458 61 288 0.0 0.0 0.00 0.00 0.00 60 1024.7
20260502062955 60 347 0.0 1.0 0.00 0.00 0.00 60 1025.0
20260502062452 60 21 0.0 1.0 0.00 0.00 0.00 62 1025.0
20260502061951 60 342 0.0 1.0 0.00 0.00 0.00 63 1025.0
20260502061448 59 2 1.0 1.0 0.00 0.00 0.00 68 1024.9
20260502060944 58 25 0.0 0.0 0.00 0.00 0.00 69 1025.0
20260502060439 58 323 1.0 2.0 0.00 0.00 0.00 70 1025.0
20260502055936 58 10 2.0 3.0 0.00 0.00 0.00 70 1025.1
20260502055434 58 333 0.0 0.0 0.00 0.00 0.00 71 1024.9
20260502054929 57 331 0.0 1.0 0.00 0.00 0.00 72 1025.0
20260502054426 57 325 2.0 2.0 0.00 0.00 0.00 74 1024.9
20260502053923 56 26 2.0 3.0 0.00 0.00 0.00 76 1024.9
20260502053420 55 311 2.0 2.0 0.00 0.00 0.00 77 1025.0
20260502052918 55 316 0.0 0.0 0.00 0.00 0.00 78 1025.0
20260502052416 55 350 2.0 3.0 0.00 0.00 0.00 78 1025.1
20260502051914 55 318 0.0 1.0 0.00 0.00 0.00 77 1025.1
20260502051412 54 343 1.0 2.0 0.00 0.00 0.00 77 1025.1
20260502050908 54 319 0.0 1.0 0.00 0.00 0.00 77 1025.1
20260502050405 54 44 0.0 1.0 0.00 0.00 0.00 76 1025.1
20260502045902 54 16 2.0 3.0 0.00 0.00 0.00 75 1025.0
20260502045359 54 324 1.0 2.0 0.00 0.00 0.00 75 1024.9
20260502044856 54 307 0.0 0.0 0.00 0.00 0.00 76 1024.9
20260502044351 54 344 0.0 0.0 0.00 0.00 0.00 76 1025.0
20260502043849 53 354 1.0 2.0 0.00 0.00 0.00 78 1025.0
20260502043346 53 339 1.0 1.0 0.00 0.00 0.00 79 1025.1
20260502042846 53 339 1.0 1.0 0.00 0.00 0.00 81 1025.2
20260502042343 53 346 1.0 2.0 0.00 0.00 0.00 81 1025.0
20260502041840 53 341 2.0 2.0 0.00 0.00 0.00 81 1025.1
20260502041337 53 334 2.0 3.0 0.00 0.00 0.00 80 1025.1
20260502040835 53 338 3.0 4.0 0.00 0.00 0.00 79 1025.1
20260502040332 53 16 2.0 2.0 0.00 0.00 0.00 77 1024.9